Temperature
12 13 13 13 13 13 13 13 13 13 13 13 13 13 13 13 14 14 14 14 14 14 14 14 14 14 15 15 15 15 15 15 15 15 15 15 15 15 15 15 15 15 15
13 13 13 13 12 12 12 13 13 13 13 13 13 13 13 13 13 13 13 14 14 14 14 14 14 14 14 14 15 15 15 15 14 14 14 15 15 15 15 15 15 15 15
13 13 13 12 12 12 12 12 13 13 13 13 13 13 13 13 13 13 13 13 13 13 13 14 14 14 14 14 14 14 14 14 14 14 14 14 14 14 14 14 14 14 14
12 12 12 12 12 12 12 12 12 12 13 13 13 13 13 13 13 13 13 13 13 13 13 13 13 13 14 14 14 14 14 14 14 14 14 14 14 14 14 14 14 14 14
12 12 12 12 12 11 11 12 12 12 12 12 12 12 12 12 13 13 13 13 13 13 13 13 13 13 13 13 13 13 13 14 14 14 14 14 14 14 14 14 14 14 14
11 12 12 11 11 11 11 11 11 12 12 12 12 12 12 12 12 12 12 12 13 13 13 13 13 13 13 13 13 13 13 13 13 13 13 13 13 13 13 14 14 14 14
11 11 11 11 11 11 11 11 11 11 11 11 12 12 12 12 12 12 12 12 12 12 12 12 12 13 12 12 12 12 13 13 13 13 13 13 13 13 13 13 13 13 13
11 11 11 11 11 11 11 11 11 11 11 11 11 11 11 11 11 12 12 12 12 12 12 12 12 12 12 12 12 12 12 12 12 12 12 12 12 12 12 12 13 13 13
10 10 10 10 10 10 10 10 10 11 11 11 11 11 11 11 11 11 11 11 11 11 11 11 11 12 12 11 11 11 11 11 12 12 12 11 12 12 12 12 12 12 12
10 10 10 10 10 10 10 10 10 10 10 10 10 10 10 11 11 11 11 11 11 11 11 11 11 11 11 11 11 11 11 11 11 11 11 11 11 11 11 12 12 12 12
9 9 9 9 9 9 10 9 10 10 10 10 10 10 10 10 10 10 10 10 10 10 10 10 10 10 10 10 10 10 10 10 10 10 10 10 10 11 11 11 11 11 11
9 9 9 9 9 9 9 9 9 9 9 9 9 9 9 9 10 10 10 10 10 10 10 10 10 10 10 10 10 10 10 10 10 9 9 10 10 10 10 10 11 11 11
8 8 8 8 8 8 8 8 8 9 9 9 9 9 9 9 9 9 9 9 9 9 10 9 9 9 9 9 9 9 9 9 9 9 9 9 9 9 9 10 10 10 10
8 8 8 8 8 8 8 8 8 8 8 8 8 8 8 9 9 9 9 9 9 9 9 9 9 9 9 8 8 8 8 8 8 8 8 9 9 9 9 9 9 9 9
8 8 8 8 7 7 7 7 7 7 8 8 8 8 8 8 8 8 8 8 8 8 8 8 8 8 8 8 8 8 8 8 8 8 8 8 8 8 8 8 8 8 8
7 7 7 7 7 7 7 7 7 7 7 7 7 7 7 7 7 7 7 7 7 7 7 7 7 7 7 7 7 7 7 7 7 7 7 7 8 8 8 8 8 8 8
7 7 7 7 7 7 7 7 6 6 6 6 7 7 7 7 7 7 7 7 7 7 7 7 7 7 7 7 7 7 7 7 7 7 7 7 7 7 7 7 7 7 7
6 6 6 6 6 6 6 6 6 6 6 6 6 6 6 6 6 6 6 6 6 6 6 6 6 6 6 6 6 6 6 6 6 6 6 6 6 6 7 7 7 7 7
6 6 6 6 6 6 5 5 5 5 5 5 5 6 5 5 5 6 6 6 5 5 5 5 5 5 5 5 5 5 5 5 5 5 5 5 5 6 6 6 6 6 6
6 5 5 5 5 5 5 5 4 4 4 4 5 5 5 5 5 5 5 5 5 5 5 5 5 4 4 4 4 4 4 4 4 4 4 4 4 5 5 5 5 5 6
5 5 5 5 5 4 4 4 4 4 4 4 4 4 4 4 4 4 4 4 4 4 4 4 4 4 4 4 4 3 3 3 3 3 3 3 4 4 4 4 4 4 5
4 4 4 4 4 4 4 4 4 3 3 3 3 3 3 3 4 4 4 4 3 3 3 3 3 3 3 2 2 2 2 2 2 2 2 3 3 3 3 3 3 3 4
4 4 4 4 4 4 4 3 3 3 3 3 2 3 3 3 3 3 3 3 3 3 3 3 2 2 2 2 2 1 1 1 1 1 2 2 2 2 2 2 2 3 3
3 3 3 3 3 3 3 3 3 3 2 2 2 2 2 2 2 2 2 2 2 2 2 2 2 2 1 1 1 1 1 0 -0 -0 0 1 1 1 1 1 2 2 2
3 3 3 3 2 2 2 2 2 2 2 2 2 2 2 2 2 2 2 2 2 2 2 1 1 1 1 1 1 0 0 -0 -0 -1 -1 -1 -0 0 0 1 1 1 1
2 2 2 2 2 2 2 2 2 2 2 2 1 1 1 1 1 1 1 1 1 1 1 1 1 0 0 0 -0 -0 -0 -1 -1 -1 -2 -2 -1 -0 -0 0 0 0 0
Wind_Speed
5 6 6 7 8 8 9 10 11 11 12 13 13 13 14 14 14 15 15 15 16 16 17 17 17 17 17 18 17 18 18 17 18 18 18 18 17 17 17 17 15 14 17
6 7 7 8 9 9 10 11 11 12 12 13 13 13 14 15 15 15 15 15 15 16 16 16 16 16 16 16 17 16 16 16 15 16 17 17 17 17 17 17 16 14 16
7 8 8 9 10 10 11 12 12 12 13 13 13 14 15 15 16 16 15 15 15 16 16 16 16 16 16 16 15 15 15 15 15 14 15 14 15 16 16 16 16 16 16
7 9 9 10 11 11 12 12 13 13 13 14 14 14 15 15 15 16 16 16 15 16 16 16 16 16 15 15 15 15 15 15 15 14 13 13 13 15 15 15 15 15 15
7 9 10 11 11 12 12 12 13 13 13 14 14 15 15 15 16 16 16 16 15 15 15 15 15 15 15 15 15 15 15 15 15 14 14 14 13 15 15 15 15 14 14
7 10 10 12 12 12 12 12 13 13 13 14 14 14 15 15 15 16 16 16 16 15 15 15 15 16 15 15 14 14 14 14 14 14 14 14 13 14 14 14 14 14 14
7 9 10 11 12 12 11 12 12 12 13 13 13 14 14 15 15 15 15 15 16 16 16 15 15 15 15 15 15 15 14 14 14 14 14 14 14 14 14 14 14 14 14
7 9 10 10 11 11 11 12 12 12 12 12 13 13 13 14 14 14 14 15 15 15 15 15 15 15 15 15 14 15 16 14 13 13 14 14 15 14 13 13 14 14 13
8 9 8 9 10 11 11 11 11 11 12 12 12 13 13 13 13 14 14 14 14 14 14 14 14 14 14 14 14 14 15 16 14 13 12 13 14 14 13 13 13 13 13
7 7 7 8 9 9 9 10 11 11 11 11 11 11 12 12 12 13 13 13 13 13 13 13 13 13 13 13 13 13 14 14 13 13 12 12 14 13 13 12 12 12 12
6 5 6 7 8 9 9 9 10 10 10 10 10 10 10 10 10 11 12 12 12 12 12 12 12 11 11 12 12 13 12 11 12 12 12 13 13 12 12 12 12 11 11
6 5 5 6 7 8 8 8 8 8 8 8 8 8 8 9 9 10 11 11 11 11 10 10 10 10 10 10 11 12 11 12 11 11 12 13 12 12 12 12 12 11 11
6 5 5 5 7 7 6 7 6 7 7 7 8 8 8 9 9 9 8 8 8 8 8 8 9 9 10 10 10 10 11 10 10 10 11 12 12 11 11 11 12 12 11
7 6 5 5 6 6 6 6 6 6 6 6 7 7 7 7 6 6 6 7 7 7 8 8 8 9 10 10 9 9 9 9 9 9 11 12 11 12 12 11 11 12 11
7 7 6 5 6 6 6 5 6 6 6 6 7 7 7 6 5 5 6 7 7 8 7 7 8 8 8 8 9 8 8 8 9 9 9 11 11 10 11 11 11 11 11
8 8 6 6 6 6 5 5 5 6 6 7 7 7 7 7 6 5 6 6 7 7 7 7 7 6 6 7 7 7 7 7 8 8 9 10 10 10 10 10 10 9 9
9 8 8 7 6 6 6 6 6 7 7 7 7 7 7 7 6 6 5 5 6 6 7 7 7 6 5 5 5 6 6 6 7 7 8 8 9 9 10 9 9 9 9
9 9 8 7 6 6 6 6 6 6 6 6 6 7 6 6 6 6 5 4 5 6 6 4 4 3 4 4 4 4 5 5 6 7 7 8 8 9 10 9 9 8 8
9 9 9 7 7 6 6 6 6 6 6 6 6 6 6 5 6 6 5 4 5 5 5 4 3 3 4 4 4 3 3 4 4 6 6 8 8 8 9 9 10 9 8
9 9 9 8 7 6 6 5 4 4 5 6 6 6 6 5 6 6 5 5 5 4 3 3 3 3 3 3 3 3 2 2 4 4 5 6 7 8 8 8 8 8 7
9 10 9 9 8 6 5 4 4 3 3 3 5 5 6 5 5 5 4 4 4 3 2 3 3 3 3 2 2 3 2 1 2 3 4 4 5 6 7 7 7 7 7
9 9 10 9 8 7 5 4 3 4 3 3 4 5 5 5 4 4 4 3 3 2 3 3 3 2 1 2 2 1 2 2 3 2 2 2 4 5 5 5 6 6 6
9 9 9 9 8 7 6 4 4 3 3 2 3 2 3 4 4 4 3 3 3 3 2 2 2 2 1 1 2 1 1 1 2 2 2 2 2 2 3 4 5 5 6
7 7 8 8 8 7 7 6 7 5 4 3 3 2 3 4 4 4 3 3 2 2 2 1 1 1 1 0 1 1 0 1 0 2 2 1 2 2 3 4 4 4 5
6 7 7 8 7 7 7 7 6 5 4 3 4 4 3 3 4 4 3 2 2 2 2 1 1 1 0 1 0 1 1 1 1 2 2 3 3 2 2 3 3 3 4
6 6 6 7 7 6 6 6 6 6 6 6 5 4 4 3 3 4 4 2 2 2 2 1 1 0 0 1 1 1 1 1 1 1 2 3 4 3 3 3 3 3 4
Wind_Direction
100 96 98 88 89 85 82 77 75 74 71 70 71 70 70 69 68 67 66 65 64 62 61 61 61 60 59 58 58 57 58 59 60 61 60 60 60 61 61 60 63 63 66
106 108 106 97 93 89 87 84 82 77 74 73 74 73 72 70 69 69 68 67 66 64 62 61 61 61 59 59 58 56 56 56 57 60 60 57 58 60 61 60 62 64 66
104 109 109 102 98 92 90 89 86 81 77 76 76 76 74 72 70 69 67 67 67 65 63 62 61 60 59 58 56 53 51 50 52 56 58 58 58 59 60 60 60 63 65
106 110 108 106 100 95 92 90 87 84 80 77 77 77 74 73 71 69 67 66 67 66 64 64 63 60 58 56 54 51 48 47 51 51 56 57 55 59 59 59 59 61 63
101 103 109 111 105 99 93 90 89 85 82 79 79 79 76 74 71 69 68 66 66 66 65 64 63 61 58 55 52 48 46 48 46 47 53 56 54 59 59 57 57 59 62
101 100 110 113 108 102 97 92 88 85 82 79 80 80 78 75 72 70 68 66 65 64 64 64 63 61 58 54 50 46 46 47 46 48 50 52 55 60 60 58 56 58 59
98 99 111 112 109 105 100 95 90 85 82 79 79 79 78 77 73 71 68 67 65 63 62 63 63 60 56 53 50 46 45 50 51 51 49 48 54 60 60 59 58 57 58
98 100 109 109 106 103 100 96 94 88 84 80 80 79 78 76 74 72 69 67 65 62 61 60 60 59 57 53 49 45 44 50 50 49 50 49 53 58 59 59 59 58 59
93 96 102 109 107 102 97 93 91 89 87 82 81 80 80 77 75 72 70 67 65 63 61 60 59 58 54 50 47 45 45 51 48 44 49 50 52 55 58 59 59 57 59
96 96 101 106 106 102 98 97 91 87 86 84 82 81 80 77 74 71 69 66 65 63 62 60 59 57 54 49 44 43 46 51 51 48 44 49 52 54 55 58 57 58 59
108 104 102 103 104 107 107 102 94 88 84 82 81 82 79 74 74 73 69 66 63 61 61 59 57 56 53 46 41 41 45 52 55 55 47 50 52 53 54 55 55 58 59
134 127 110 108 106 107 109 104 98 92 86 80 80 77 75 74 74 78 73 67 63 60 58 55 52 50 45 40 39 41 47 48 53 56 48 51 52 53 56 56 55 56 61
143 133 120 113 113 108 102 106 99 93 86 77 76 75 77 75 75 72 67 63 57 53 46 43 43 41 41 39 40 43 47 47 52 57 52 51 52 52 56 57 57 57 62
147 142 127 114 113 109 107 104 98 91 86 74 70 69 72 71 68 69 65 58 52 47 39 36 36 40 40 38 41 44 46 49 53 56 54 52 49 48 51 55 57 56 57
154 150 140 121 118 113 103 101 98 91 88 85 82 71 69 69 67 71 66 58 49 46 39 34 37 36 35 33 37 41 43 48 53 57 58 52 48 47 46 46 50 52 53
160 155 145 132 122 119 108 101 97 96 96 90 79 73 72 70 66 68 66 58 48 42 41 39 38 37 35 32 31 34 40 45 56 59 58 50 46 44 43 41 41 46 49
160 152 146 140 127 123 117 111 101 100 99 91 84 81 73 74 71 71 68 60 46 45 47 44 41 42 40 33 22 22 36 49 54 57 58 52 46 40 38 36 33 37 42
153 152 152 151 140 133 120 116 108 109 104 98 97 91 78 78 82 77 72 61 53 53 50 45 44 36 33 27 15 8 26 48 61 61 59 55 51 44 40 35 30 31 34
156 152 152 148 148 142 127 119 113 112 105 104 101 93 85 80 85 82 74 67 63 61 54 45 44 45 43 29 11 5 20 43 59 62 60 58 52 48 41 32 29 30 31
154 153 154 151 150 143 132 123 116 110 104 106 103 101 99 86 85 87 81 72 69 66 58 54 58 45 57 35 17 11 3 44 62 66 63 57 50 47 38 28 24 19 21
157 158 161 158 156 151 149 149 146 145 132 112 108 112 110 100 91 84 78 73 69 75 76 76 78 66 48 34 29 6 357 38 73 69 73 70 53 45 37 29 27 18 14
170 165 164 164 161 162 161 156 149 143 139 125 114 114 115 113 107 105 88 85 75 80 78 81 81 57 39 34 37 18 2 358 31 29 37 60 51 38 28 21 23 18 15
175 172 170 168 165 163 150 135 134 129 126 127 138 137 127 128 120 111 109 102 89 86 105 94 101 77 53 353 33 81 88 281 333 325 352 30 36 27 12 11 13 12 12
174 166 163 165 164 162 154 155 157 162 165 171 164 162 142 137 131 126 124 117 104 93 102 105 70 72 116 5 354 12 77 174 237 312 312 335 349 345 345 344 347 359 359
164 163 165 161 163 163 163 166 170 166 161 149 153 159 162 153 151 147 142 138 133 121 117 87 46 35 114 195 247 319 342 342 258 238 279 305 320 311 327 321 322 331 330
157 160 163 164 166 165 167 170 174 170 164 163 167 170 170 166 164 157 154 150 151 146 152 159 174 203 233 251 264 257 242 232 267 265 270 294 296 294 300 294 297 304 308
Height
1515 1516 1518 1519 1520 1521 1522 1523 1523 1524 1524 1525 1525 1526 1526 1527 1527 1527 1527 1528 1528 1528 1528 1529 1529 1529 1529 1530 1530 1531 1531 1532 1532 1532 1533 1533 1533 1533 1533 1534 1534 1534 1534
1514 1516 1518 1519 1520 1521 1522 1522 1523 1524 1525 1525 1526 1526 1527 1527 1527 1528 1528 1528 1529 1529 1529 1529 1530 1530 1531 1531 1532 1532 1533 1533 1533 1534 1534 1534 1535 1535 1535 1536 1536 1536 1536
1513 1515 1517 1518 1520 1521 1521 1522 1523 1524 1525 1525 1526 1526 1527 1527 1528 1528 1529 1529 1529 1529 1530 1530 1530 1531 1531 1532 1533 1533 1534 1534 1535 1535 1535 1535 1536 1537 1537 1537 1537 1538 1538
1513 1514 1516 1518 1519 1520 1521 1522 1523 1524 1525 1526 1526 1527 1527 1528 1528 1529 1529 1529 1530 1530 1530 1531 1531 1531 1532 1533 1533 1534 1535 1535 1536 1536 1536 1537 1537 1538 1538 1538 1539 1539 1539
1512 1514 1516 1517 1519 1520 1521 1522 1523 1524 1525 1526 1526 1527 1528 1528 1528 1529 1529 1530 1530 1531 1531 1531 1531 1532 1533 1533 1534 1535 1535 1536 1536 1537 1537 1538 1538 1539 1539 1539 1540 1540 1541
1512 1513 1515 1517 1518 1519 1521 1522 1523 1524 1525 1526 1526 1527 1528 1528 1529 1529 1530 1530 1530 1531 1531 1532 1532 1532 1533 1534 1534 1535 1536 1536 1537 1537 1537 1538 1539 1539 1540 1540 1541 1541 1542
1511 1512 1514 1516 1518 1519 1520 1521 1522 1524 1525 1526 1526 1527 1528 1528 1529 1529 1530 1530 1531 1531 1531 1532 1532 1533 1533 1534 1535 1536 1536 1536 1537 1537 1538 1538 1539 1540 1540 1541 1541 1542 1542
1510 1511 1513 1515 1517 1518 1519 1521 1522 1523 1524 1525 1526 1527 1527 1528 1529 1529 1530 1531 1531 1531 1531 1532 1532 1533 1533 1534 1535 1536 1536 1536 1537 1537 1538 1538 1539 1540 1541 1541 1542 1542 1543
1509 1511 1512 1514 1516 1517 1518 1520 1521 1522 1524 1525 1526 1526 1527 1528 1529 1529 1530 1530 1531 1531 1531 1532 1532 1533 1533 1534 1535 1536 1536 1536 1537 1537 1538 1538 1539 1540 1541 1541 1542 1542 1543
1509 1510 1511 1513 1514 1516 1518 1519 1520 1521 1523 1524 1525 1526 1527 1527 1528 1529 1530 1530 1531 1531 1531 1532 1532 1532 1533 1534 1535 1536 1536 1536 1537 1537 1537 1538 1539 1540 1540 1541 1542 1542 1543
1507 1508 1510 1512 1513 1515 1516 1518 1520 1521 1522 1523 1524 1525 1526 1526 1527 1528 1529 1530 1530 1531 1531 1532 1532 1532 1533 1534 1534 1535 1535 1536 1536 1537 1537 1538 1539 1539 1540 1540 1541 1542 1542
1505 1507 1509 1510 1512 1513 1515 1516 1518 1519 1520 1522 1523 1524 1524 1525 1526 1527 1528 1529 1529 1530 1531 1531 1531 1532 1533 1533 1534 1534 1535 1535 1536 1536 1537 1537 1538 1539 1539 1540 1540 1541 1541
1503 1505 1507 1509 1510 1512 1513 1514 1516 1517 1519 1520 1521 1522 1523 1524 1525 1526 1527 1528 1528 1529 1529 1530 1531 1531 1532 1532 1533 1533 1534 1534 1535 1535 1536 1537 1538 1538 1539 1539 1540 1540 1541
1501 1503 1505 1507 1508 1510 1511 1513 1514 1516 1517 1518 1519 1521 1522 1523 1524 1525 1525 1526 1527 1528 1528 1529 1529 1530 1531 1531 1532 1532 1532 1533 1534 1534 1535 1536 1536 1537 1538 1539 1539 1539 1540
1498 1501 1503 1505 1506 1508 1509 1511 1512 1514 1515 1516 1518 1519 1520 1522 1523 1523 1524 1525 1526 1526 1527 1527 1528 1529 1529 1530 1530 1531 1531 1532 1532 1533 1533 1534 1535 1536 1537 1537 1538 1538 1538
1496 1498 1500 1502 1504 1505 1507 1509 1510 1512 1513 1515 1516 1518 1519 1520 1521 1522 1523 1524 1525 1525 1526 1526 1527 1527 1528 1529 1529 1530 1530 1530 1531 1531 1532 1533 1533 1534 1535 1535 1536 1536 1537
1493 1495 1497 1499 1502 1503 1505 1507 1508 1510 1511 1513 1514 1516 1517 1518 1520 1520 1521 1522 1523 1524 1524 1525 1525 1526 1527 1527 1528 1528 1528 1529 1529 1530 1530 1531 1531 1532 1533 1533 1534 1534 1534
1490 1492 1494 1497 1499 1501 1503 1505 1506 1508 1509 1511 1512 1514 1516 1517 1518 1519 1520 1521 1521 1522 1523 1523 1524 1524 1525 1525 1525 1526 1527 1527 1527 1528 1528 1529 1529 1530 1530 1531 1531 1532 1532
1487 1489 1491 1493 1496 1498 1500 1502 1504 1506 1507 1509 1510 1512 1513 1515 1516 1517 1518 1519 1520 1520 1521 1522 1522 1523 1523 1523 1523 1524 1524 1525 1525 1526 1526 1527 1527 1528 1528 1528 1529 1529 1530
1483 1486 1488 1490 1493 1495 1497 1499 1501 1503 1505 1506 1508 1510 1511 1513 1514 1515 1516 1517 1518 1518 1519 1520 1520 1521 1522 1522 1521 1522 1522 1523 1523 1524 1524 1524 1525 1525 1525 1526 1526 1526 1527
1480 1482 1484 1487 1489 1492 1494 1495 1498 1500 1502 1503 1505 1507 1509 1511 1512 1513 1514 1515 1515 1516 1517 1518 1518 1519 1519 1520 1520 1520 1520 1521 1521 1522 1522 1522 1522 1523 1523 1523 1523 1523 1523
1475 1478 1481 1484 1486 1489 1491 1493 1495 1497 1499 1501 1503 1505 1507 1508 1510 1510 1512 1513 1513 1515 1515 1516 1516 1517 1517 1518 1518 1518 1518 1520 1519 1520 1520 1520 1520 1520 1520 1520 1520 1520 1520
1472 1474 1477 1480 1483 1486 1488 1491 1493 1495 1497 1499 1501 1502 1504 1506 1507 1509 1510 1510 1511 1512 1513 1514 1515 1515 1516 1516 1517 1518 1518 1517 1517 1517 1517 1518 1518 1518 1518 1518 1517 1517 1517
1469 1472 1474 1477 1480 1483 1485 1487 1489 1490 1492 1495 1497 1499 1501 1503 1504 1506 1507 1508 1509 1509 1510 1511 1512 1513 1514 1514 1515 1516 1517 1516 1516 1514 1515 1515 1515 1514 1515 1514 1514 1514 1514
1466 1469 1472 1474 1477 1480 1482 1484 1486 1488 1490 1492 1494 1496 1498 1499 1501 1503 1504 1505 1506 1507 1508 1509 1510 1510 1511 1512 1512 1513 1513 1514 1514 1514 1511 1511 1511 1511 1511 1511 1511 1511 1511
1464 1466 1469 1471 1474 1476 1479 1481 1483 1485 1487 1489 1491 1492 1494 1496 1497 1499 1500 1502 1502 1503 1504 1505 1507 1507 1508 1509 1509 1510 1510 1511 1511 1511 1509 1508 1507 1507 1508 1507 1507 1507 1507